This demonstration page uses our WeatherBlox Daily Observations layout. Learn more.

Left ArrowRight Arrow

Hourly Observations for June 14, 2017

Temp ( °F °C ) Dew Point ( °F °C ) Humidity (%) Winds ( mph kmh ) Pressure ( in mb ) Visibility ( mi km ) Precip ( " mm )
12:15 am 00:15 Partly Cloudy 72 22.3 55 12.5 54 54 S 7 11 29.62 1003 10 16.0934 0 0
12:35 am 00:35 Mostly Cloudy 73 22.5 56 13.1 55 55 SSW 5 7 29.62 1003 10 16.0934 0 0
12:55 am 00:55 Partly Cloudy 73 22.9 56 13.1 54 54 S 8 13 29.62 1003 10 16.0934 0 0
1:15 am 01:15 Partly Cloudy 72 22.1 55 12.8 56 56 S 5 7 29.65 1004 10 16.0934 0 0
1:30 am 01:30 Partly Cloudy 69 20.8 55 13 61 61 Calm 29.65 1004 10 16.0934 0 0
1:55 am 01:55 Mostly Cloudy 68 20.1 56 13.1 64 64 S 3 6 29.68 1005 10 16.0934 0 0
2:15 am 02:15 Cloudy 68 20.1 56 13.2 65 65 SSE 7 11 29.68 1005 10 16.0934 0 0
2:35 am 02:35 Cloudy 68 20.1 55 12.9 63 63 S 6 9 29.68 1005 10 16.0934 0 0
2:55 am 02:55 Cloudy 67 19.5 55 12.5 64 64 S 6 9 29.68 1005 10 16.0934 0 0
3:15 am 03:15 Cloudy 68 20.1 53 11.6 58 58 S 5 7 29.68 1005 10 16.0934 0 0
3:35 am 03:35 Cloudy 69 20.6 52 11 54 54 SSE 5 7 29.68 1005 10 16.0934 0 0
3:55 am 03:55 Cloudy 69 20.7 52 11 54 54 Calm 29.71 1006 10 16.0934 0 0
4:10 am 04:10 Cloudy 69 20.8 52 10.9 53 53 WNW 3 6 29.71 1006 10 16.0934 0 0
4:35 am 04:35 Cloudy with Nearby Thunderstorms 70 21.2 54 12 56 56 N 6 9 29.68 1005 10 16.0934 0 0
4:55 am 04:55 Cloudy 69 20.6 57 13.7 65 65 NNE 15 24 29.74 1007 10 16.0934 0 0
5:15 am 05:15 Cloudy 67 19.6 58 14.2 71 71 ENE 7 11 29.71 1006 10 16.0934 0 0
5:35 am 05:35 Mostly Cloudy 66 19 58 14.3 74 74 E 7 11 29.71 1006 10 16.0934 0 0
5:55 am 05:55 Clear 64 18 58 14.2 79 79 NNW 5 7 29.74 1007 10 16.0934 0 0
6:15 am 06:15 Sunny 64 18 57 14.1 78 78 NNW 5 7 29.74 1007 10 16.0934 0 0
6:35 am 06:35 Sunny 63 17.2 57 13.8 81 81 NNW 5 7 29.77 1008 10 16.0934 0 0
6:55 am 06:55 Sunny 63 17.2 57 14.1 82 82 NW 5 7 29.8 1009 10 16.0934 0 0
7:15 am 07:15 Sunny 64 17.9 58 14.3 80 80 WNW 7 11 29.8 1009 10 16.0934 0 0
7:35 am 07:35 Sunny 66 18.7 58 14.4 76 76 WNW 3 6 29.77 1008 10 16.0934 0 0
7:55 am 07:55 Sunny 68 20.2 58 14.3 69 69 Calm 29.77 1008 10 16.0934 0 0
8:15 am 08:15 Sunny 70 21.2 58 14.2 64 64 NW 6 9 29.8 1009 10 16.0934 0 0
8:35 am 08:35 Sunny 72 22.2 44 6.5 36 36 NW 9 15 29.77 1008 10 16.0934 0 0
8:55 am 08:55 Sunny 72 22.3 43 6.2 35 35 NW 7 11 29.77 1008 10 16.0934 0 0
9:15 am 09:15 Sunny 73 22.8 44 6.4 35 35 NW 10 17 29.77 1008 10 16.0934 0 0
9:35 am 09:35 Sunny 73 23 42 5.4 32 32 NW 7 11 29.77 1008 10 16.0934 0 0
9:55 am 09:55 Sunny 74 23.2 42 5.3 31 31 NNW 8 13 29.77 1008 10 16.0934 0 0
10:15 am 10:15 Sunny 75 23.7 43 5.9 32 32 N 6 9 29.77 1008 10 16.0934 0 0
10:35 am 10:35 Sunny 76 24.6 42 5.8 30 30 N 7 11 29.77 1008 10 16.0934 0 0
10:55 am 10:55 Sunny 77 25 42 5.3 28 28 NNW 7 11 29.77 1008 10 16.0934 0 0
11:15 am 11:15 Sunny 77 25.2 41 5.1 27 27 NW 8 13 29.77 1008 10 16.0934 0 0
11:35 am 11:35 Sunny 78 25.3 40 4.6 26 26 N 3 6 29.77 1008 10 16.0934 0 0
11:55 am 11:55 Sunny 79 25.9 40 4.4 25 25 W 5 7 29.74 1007 10 16.0934 0 0
12:15 pm 12:15 Sunny 79 26.2 40 4.4 25 25 W 3 6 29.77 1008 10 16.0934 0 0
12:35 pm 12:35 Sunny 80 26.6 40 4.2 24 24 NW 3 6 29.77 1008 10 16.0934 0 0
12:55 pm 12:55 Sunny 81 27 40 4.5 24 24 N 5 7 29.77 1008 10 16.0934 0 0
1:15 pm 13:15 Sunny 81 27.1 40 4.2 23 23 Calm 29.74 1007 10 16.0934 0 0
1:35 pm 13:35 Sunny 81 27.1 40 4.2 23 23 Calm 29.74 1007 10 16.0934 0 0
1:55 pm 13:55 Sunny 82 27.7 40 4.7 23 23 NW 7 11 29.74 1007 10 16.0934 0 0
2:15 pm 14:15 Sunny 83 28.2 42 5.3 23 23 WNW 5 7 29.74 1007 10 16.0934 0 0
2:35 pm 14:35 Sunny 83 28.2 40 4.4 22 22 W 10 17 29.74 1007 10 16.0934 0 0
2:55 pm 14:55 Sunny 83 28.4 41 4.9 22 22 W 7 11 29.74 1007 10 16.0934 0 0
3:15 pm 15:15 Sunny 84 29.1 41 4.8 21 21 W 16 26 29.74 1007 10 16.0934 0 0
3:35 pm 15:35 Sunny 84 28.7 40 4.7 22 22 WNW 8 13 29.74 1007 10 16.0934 0 0
3:55 pm 15:55 Sunny 85 29.2 39 4 20 20 W 10 17 29.74 1007 10 16.0934 0 0
4:15 pm 16:15 Sunny 85 29.7 40 4.2 20 20 WSW 15 24 29.71 1006 10 16.0934 0 0
4:35 pm 16:35 Sunny 86 29.8 39 3.9 19 19 WSW 10 17 29.71 1006 10 16.0934 0 0
4:55 pm 16:55 Sunny 86 30 40 4.6 20 20 WNW 8 13 29.68 1005 10 16.0934 0 0
5:15 pm 17:15 Sunny 87 30.3 38 3.4 18 18 W 9 15 29.68 1005 10 16.0934 0 0
5:35 pm 17:35 Sunny 87 30.4 36 2.2 16 16 WSW 9 15 29.68 1005 10 16.0934 0 0
5:55 pm 17:55 Sunny 87 30.7 35 1.7 16 16 W 10 17 29.68 1005 10 16.0934 0 0
6:15 pm 18:15 Sunny 87 30.6 37 2.5 17 17 W 8 13 29.68 1005 10 16.0934 0 0
6:35 pm 18:35 Sunny 87 30.5 34 1.1 15 15 W 13 20 29.68 1005 10 16.0934 0 0
6:55 pm 18:55 Sunny 87 30.3 35 1.7 16 16 W 8 13 29.68 1005 10 16.0934 0 0
7:15 pm 19:15 Sunny 86 30.1 35 1.5 16 16 W 9 15 29.68 1005 10 16.0934 0 0
7:35 pm 19:35 Sunny 86 29.9 35 1.8 16 16 W 6 9 29.68 1005 10 16.0934 0 0
7:55 pm 19:55 Sunny 85 29.4 38 3.5 19 19 SW 7 11 29.68 1005 10 16.0934 0 0
8:15 pm 20:15 Sunny 84 28.7 40 4.3 21 21 SSW 6 9 29.71 1006 10 16.0934 0 0
8:35 pm 20:35 Sunny 82 27.6 42 5.4 24 24 SSW 3 6 29.71 1006 10 16.0934 0 0
8:55 pm 20:55 Sunny 80 26.7 42 5.7 26 26 SSW 7 11 29.71 1006 10 16.0934 0 0
9:15 pm 21:15 Clear 77 25.2 42 5.7 29 29 SSW 7 11 29.74 1007 10 16.0934 0 0
9:35 pm 21:35 Clear 77 25.1 42 5.5 28 28 SSW 6 9 29.74 1007 10 16.0934 0 0
9:55 pm 21:55 Clear 75 24 43 5.9 31 31 S 7 11 29.77 1008 10 16.0934 0 0
10:15 pm 22:15 Clear 75 24.1 42 5.3 30 30 S 3 6 29.77 1008 10 16.0934 0 0
10:35 pm 22:35 Clear 74 23.1 43 6 33 33 S 3 6 29.77 1008 10 16.0934 0 0
10:55 pm 22:55 Clear 72 22.4 43 6 35 35 S 5 7 29.8 1009 10 16.0934 0 0
11:15 pm 23:15 Clear 72 22 45 7.2 39 39 SSW 7 11 29.83 1010 10 16.0934 0 0
11:35 pm 23:35 Clear 71 21.7 46 7.6 40 40 SSW 3 6 29.83 1010 10 16.0934 0 0
11:55 pm 23:55 Clear 70 21.1 47 8.2 44 44 SSW 5 7 29.8 1009 10 16.0934 0 0

Powered by AerisWeather